Showing default

COSMOS 2586, 63289

Orbit data source: Space-Track

COSMOS 2586, 63289 is a payload satellite owned by VVKO VKS (CIS) in LEO that was launched on Sun, 16 Mar 2025 UTC via an ANGARA-1.2 launch vehicle from the Plesetsk Missile And Space Complex (PKMTR). Payload-class satellites include a variety of spacecraft equipped with specific instruments for various scientific and technological missions. These include communications satellites like Starlink; space stations such as the ISS; scientific satellites like the Hubble; Earth observation satellites from companies like Planet Labs, Umbra, and HawkEye 360; GPS; miniature CubeSats for education and research; and military/defense satellites.

Loading next visibility...
Identifier
63289, 2025-054B
Orbit
LEO
Country
Flag of CISCIS
Related business
Manufacturer
Resehetnev ISS
Mission
Operational Defense Communications
Bus & Motor
STRELA-3M, Unknown motor
Mass
280 kg wet, 280 kg dry
Launch date (UTC)
2025-03-16 (8 months ago)
Launch vehicle
ANGARA-1.2
Launch site
Plesetsk Missile And Space Complex (PKMTR)
Object type
Payload
Rocket body
Debris
Shape & HBR
Cyl + 1 Ant, 22.5 m
Radar Cross Section
1.583 m², Large (>1 m²)

Expand to show TLE details & history
Last TLE update: 4 hours ago

TLE from 4 hours ago
0 COSMOS 2586
1 63289U 25054B   25312.87502491  .00000039  00000-0  21235-3 0  9991
2 63289  82.4949 215.6619 0020704 141.5634 218.6925 12.42902976 29481
Epoch: 2025-11-08T21:00Z
TLE epoch observation values (Epoch: 2025-11-08T21:00:02.152Z)
Latitude
-0.00001°
Longitude
-147.64543°
Altitude
1,509.758 km
Speed
7.104 km/s
True Right ascension
14h 22m 38s
True Declination
0° 00' 00"
Sunlit
Object was in daylight at epoch
Visualization orbit readout
Latitude
Unknown
Longitude
Unknown
Altitude
Unknown
Speed
Unknown
Apparent Right ascension
Unknown
Apparent Declination
Unknown
Sunlit
N/A
Visualization observer readout
Local Sidereal Time
21:29:30
Azimuth
Unknown
Elevation
Unknown
Doppler factor
Unknown
Orbital elements
Apogee altitude
1,507.966 km
Perigee altitude
1,475.379 km
Semi-major axis
7,869.81 km
Eccentricity
0.00207
Inclination
82.4949°
RAAN
215.6619°
Arg. of periapsis
141.5634°
True anomaly
218.54448°
Mean anomaly
218.6925°
Eccentric anomaly
218.61846°
Mean motion
3.10883 °/min
Orbital period
115.8 mins
BSTAR
0.00021235
Loading maneuver chart data...
Computing Atmospheric mass density...
Loading historical data...
Loading historical data...
Loading historical data...
Loading historical data...
Loading historical data...
Loading historical data...
Loading historical data...
Other satellites on launch #54 in the year 2025 (2025-03-16 UTC)

Documentation

Showing up to 5 results
|